sat.trackr.live / text

‹ back to catalog

STARLINK-36375

NORAD 67920 · 2026-036S

PAYLOAD ACTIVE UNKNOWN

§ Identity

Operator
Country
US
Launch date
2026-02-22
Launch site
AFETR
Launch vehicle
Mass (kg)
RCS (m²)

Purposes: comms

External: N2YO · Heavens-Above · Gunter

§ Orbital elements

Epoch: 2026-09-19T22:09:04.584672Z

Period
94.27 min
Inclination
42.9984°
Eccentricity
0.0001162
Mean motion
15.27587361 rev/d
Perigee alt
482.2 km
Apogee alt
483.8 km
Semi-major
6,861.2 km
B*
5.8845e-4
RAAN
228.6766°
Arg perigee
276.0004°
Mean anomaly
84.0715°
Rev number
3,342

§ Raw data

STARLINK-363751 67920U 26036S   26262.92296973  .00015969  00000+0  58845-3 0  99982 67920  42.9984 228.6766 0001162 276.0004  84.0715 15.27587361 33420

JSON: /api/v1/satellites/67920 · /tle

For live sub-satellite position, see the globe view (requires WebGL).

§ Visibility from observer

Set your observer location to see the next 7 days of passes ≥ 10°. The values pass through the URL so the page stays shareable.

No JS? Fill the form by hand. The geolocation button needs JavaScript.